Regional Weather Roundup
Issued by NWS

Home | Current Version | Previous Version | Graphics & Text | Print | Product List | Glossary On
Versions: 1 2 3 4 5 6 7 8 9 10 11 12 13 14 15 16 17 18 19 20 21 22 23 24 25 26 27 28 29 30 31 32 33 34 35 36 37 38 39 40 41 42 43 44 45 46 47 48 49 50
000
ASUS43 KMKX 051800
RWRWI

WISCONSIN REGIONAL WEATHER ROUNDUP
NATIONAL WEATHER SERVICE MILWAUKEE/SULLIVAN WI
1200 PM CST FRI FEB 05 2016

NOTE: "FAIR" INDICATES FEW OR NO CLOUDS BELOW 12,000 FEET WITH NO
SIGNIFICANT WEATHER AND/OR OBSTRUCTIONS TO VISIBILITY.

WIZ001-002-006>008-014>016-023>028-051900-
NORTHWEST WISCONSIN

CITY           SKY/WX    TMP DP  RH WIND       PRES   REMARKS
SUPERIOR ARPT  CLOUDY    20  10  64 SW3       30.28F
ASHLAND        CLOUDY    21  10  62 SW7       30.28F WCI  12
6HR MIN TEMP:  -1; 6HR MAX TEMP:  21;

HAYWARD        PTSUNNY   19   9  65 S8        30.27F WCI   9
6HR MIN TEMP:  -4; 6HR MAX TEMP:  19;

SIREN          CLOUDY    20  11  68 S7        30.29F WCI  11
CUMBERLAND     MOSUNNY   14  12  92 S6        30.29F WCI   5
RICE LAKE      MOSUNNY   16  13  90 CALM      30.33S
CHETEK         MOSUNNY   18  15  88 CALM      30.32F
LADYSMITH      CLOUDY    14  12  90 CALM      30.32F
EAU CLAIRE     NOT AVBL
MENOMONIE      CLOUDY    19  12  75 E3        30.35S
NEW RICHMOND   CLOUDY    17  14  90 S10       30.31F WCI   4
OSCEOLA        CLOUDY    17  17 100 S8        30.34F WCI   6
$$

WIZ003>005-009-010-017-018-051900-
NORTH CENTRAL WISCONSIN

CITY           SKY/WX    TMP DP  RH WIND       PRES   REMARKS
MANITOWISH WTR CLOUDY    16  14  93 S5        30.24F WCI   9
ARBOR VITAE    PTSUNNY   19  11  70 CALM      30.25S
WOODRUFF       PTSUNNY   19  11  70 CALM      30.25S
RHINELANDER    CLOUDY    21  10  62 W5        30.25F WCI  15
6HR MIN TEMP:   3; 6HR MAX TEMP:  21;

EAGLE RIVER    SUNNY     17  12  81 CALM      30.23F
LAND O LAKES   PTSUNNY   22  10  61 S3        30.23F
PHILLIPS       CLOUDY    17   9  68 CALM      30.27F
TOMAHAWK       CLOUDY    21   9  60 CALM      30.28F
MEDFORD        CLOUDY    14  12  92 CALM      30.28F
MERRILL        CLOUDY    20  11  68 CALM      30.30F
$$

WIZ029-030-035-036-043>047-051900-
CENTRAL WISCONSIN

CITY           SKY/WX    TMP DP  RH WIND       PRES   REMARKS
WAUSAU         CLOUDY    23  12  62 W6        30.28F WCI  16
6HR MIN TEMP:  11; 6HR MAX TEMP:  23;

MOSINEE        NOT AVBL
MARSHFIELD     CLOUDY    19  11  70 W3        30.29F
6HR MIN TEMP:   6; 6HR MAX TEMP:  19;

STEVENS POINT  CLOUDY    21  13  69 W5        30.33S WCI  15
WAUPACA        SUNNY     29  16  57 W3        30.34F
WAUTOMA        NOT AVBL
WISC RAPIDS    SUNNY     23  13  65 SW8       30.34F WCI  14
6HR MIN TEMP:   9; 6HR MAX TEMP:  23;

CAMP DOUGLAS   NOT AVBL
$$

WIZ011>013-019>022-031-037>040-048>050-051900-
NORTHEAST WISCONSIN

CITY           SKY/WX    TMP DP  RH WIND       PRES   REMARKS
ANTIGO         CLOUDY    14  13  94 CALM      30.27F
SHAWANO        CLOUDY    26  14  60 W8        30.32F WCI  18
OCONTO         SUNNY     23  12  63 NW3       30.33F
STURGEON BAY   SUNNY     21  10  63 NW8       30.33F WCI  12
6HR MIN TEMP:  19; 6HR MAX TEMP:  21;

GREEN BAY      SUNNY     24  14  65 W6        30.33F WCI  17
6HR MIN TEMP:  10; 6HR MAX TEMP:  24;

MANITOWOC      NOT AVBL
APPLETON       MOSUNNY   23  12  63 W7        30.30F WCI  15
CLINTONVILLE   SUNNY     27  14  59 W8        30.33S WCI  18
OSHKOSH        SUNNY     24  14  65 VRB6      30.34S WCI  17
6HR MIN TEMP:  15; 6HR MAX TEMP:  24;

$$

WIZ032>034-041-042-053>061-051900-
SOUTHWEST WISCONSIN

CITY           SKY/WX    TMP DP  RH WIND       PRES   REMARKS
LA CROSSE      SUNNY     18  11  74 SE6       30.37F WCI  10
6HR MIN TEMP:   1; 6HR MAX TEMP:  18;

SPARTA         CLOUDY    20  16  86 W6        30.37F WCI  12
VIROQUA        SUNNY     20  15  82 W7        30.33F WCI  11
BOSCOBEL       SUNNY     26  16  65 SW7       30.38F WCI  18
6HR MIN TEMP:   8; 6HR MAX TEMP:  26;

PRAIRIE DU CHI SUNNY     22  12  65 CALM      30.39F
PLATTEVILLE    CLOUDY    25  19  77 CALM      30.37F
$$

WIZ056-057-062-063-064-067-068-051900-
SOUTH CENTRAL WISCONSIN

CITY           SKY/WX    TMP DP  RH WIND       PRES   REMARKS
REEDSBURG      SUNNY     24  17  75 CALM      30.35F
BARABOO/DELLS  SUNNY     25  16  69 W3        30.35F
LONE ROCK      NOT AVBL
MINERAL POINT  SUNNY     28  19  69 W3        30.35F
MADISON        CLOUDY    27  14  58 W6        30.36S WCI  20
6HR MIN TEMP:  21; 6HR MAX TEMP:  27;

MIDDLETON      MOSUNNY   28  17  63 W5        30.36F WCI  23
WATERTOWN      SUNNY     26  17  69 NW5       30.35F WCI  20
MONROE         SUNNY     28  21  74 CALM      30.35F
JANESVILLE     SUNNY     28  19  69 W6        30.36F WCI  22
$$

WIZ051-052-058>065-066-070>072-051900-
SOUTHEAST WISCONSIN

CITY           SKY/WX    TMP DP  RH WIND       PRES   REMARKS
MILWAUKEE      PTSUNNY   29  17  61 CALM      30.34F
6HR MIN TEMP:  25; 6HR MAX TEMP:  29;

WAUKESHA       SUNNY     25  18  74 W8        30.35F WCI  16
MILWAUKEE/TIMM SUNNY    N/A N/A N/A W7        30.34F
RACINE         CLOUDY    29  17  61 W8        30.36F WCI  21
6HR MIN TEMP:  25; 6HR MAX TEMP:  29;

BURLINGTON     SUNNY     26  18  70 NW7       30.35F WCI  19
KENOSHA        CLOUDY    28  20  71 W10       30.35F WCI  19
6HR MIN TEMP:  25; 6HR MAX TEMP:  29;

FOND DU LAC    FLURRIES  24  14  65 W7        30.35S WCI  16
6HR MIN TEMP:  17; 6HR MAX TEMP:  25; 6HR PCP: TRACE;

SHEBOYGAN      MOSUNNY   25  14  63 NW8       30.33F WCI  16
6HR MIN TEMP:  16; 6HR MAX TEMP:  25;

WEST BEND      SUNNY     27  16  63 W8        30.33F WCI  18
JUNEAU         CLOUDY    23  15  69 W6        30.36F WCI  16
$$

LSZ147-162-051900-
LAKE SUPERIOR

STATION/POSITION TIME  TEMP    WIND        PRES    WAVE
                       AIR SEA DIR/SP/G            HT/PER
                 (UTC) (F)     (DEG/KT/KT) (MB)    (FT/S)
DEVILS ISLAND    1700   20     220/ 10/ 12 1027.2F
SAXON HARBOR     1700   20                 1026.1
$$

LMZ867-665-643>646-051900-
LAKE MICHIGAN

STATION/POSITION TIME  TEMP    WIND        PRES    WAVE
                       AIR SEA DIR/SP/G            HT/PER
                 (UTC) (F)     (DEG/KT/KT) (MB)    (FT/S)
CHAMBERS ISLAND  1700   30     280/  3/  7 1026.8S
ALGOMA LAKESHORE 1641          320/  6/  8   N/A
KEWAUNEE LAKESHO 1700   23     300/  9/ 11 1026.3S
SHEBOYGAN LAKESH 1700   24     320/  8/ 11 1028.8S
PORT WASHINGTON  1740   28     320/  2/ 11 1028.1F
MILWAUKEE LAKESH 1710   27     300/  6/  7   N/A
KENOSHA   LAKESH 1700   27     320/  6/ 10 1028.1R
$$

TC  - TEMPERATURE IN CELSIUS
VSB - VISIBILITY IN STATUTE MILES
WCI - WIND CHILL INDEX
HX  - HEAT INDEX




USA.gov is the U.S. government's official web portal to all federal, state and local government web resources and services.